Weather History for Atwater, CA

Change the Weather History Date:

Saturday, June 15, 2013

  Actual Average (KMCE) Record (KMCE)
Temperature  
Mean Temperature 73 °F 74 °F  
Max Temperature 95 °F 89 °F 104 °F (2000)
Min Temperature 51 °F 58 °F 52 °F (2002)
Degree Days  
Heating Degree Days 0    
Month to date heating degree days  
Since 1 June heating degree days  
Since 1 July heating degree days  
Cooling Degree Days 8    
Month to date cooling degree days  
Year to date cooling degree days  
Since 1 June cooling degree days  
Growing Degree Days 23 (Base 50)    
Moisture  
Dew Point 43 °F    
Average Humidity 46    
Maximum Humidity 77    
Minimum Humidity 9    
Precipitation  
Precipitation 0.00 in 0.00 in 0.00 in (2014)
Month to date precipitation 0.13  
Year to date precipitation 8.68  
Since 1 July precipitation 12.50  
Snow  
Snow 0.00 in - - ()
Month to date snowfall  
Since 1 June snowfall  
Since 1 July snowfall  
Snow Depth -    
Sea Level Pressure  
Sea Level Pressure 29.84 in    
Wind  
Wind Speed 5 mph (North)    
Max Wind Speed 16 mph    
Max Gust Speed -    
Visibility 10 miles    
Events      
T = Trace of Precipitation, MM = Missing Value Source: NWS Daily Summary

Daily Weather History Graph

Daily Weather History Graph

Search for Another Location

Airport:

Trip Planner

Search our weather history database for the weather conditions in past years. The results will help you decide how hot, cold, wet, or windy it might be!

Date:

Astronomy

Jun. 15, 2013 Rise Set
Actual Time 5:41 AM PDT 8:24 PM PDT
Civil Twilight 5:09 AM PDT 8:55 PM PDT
Nautical Twilight 4:31 AM PDT 9:34 PM PDT
Astronomical Twilight 3:47 AM PDT 10:18 PM PDT
Moon 12:13 PM PDT (6/15) 12:09 AM PDT (6/15)
Length of Visible Light 15h 45m
Length of Day
14h 43m
Waxing Crescent, 40% of the Moon is Illuminated
Jun 15
Waxing Crescent
Jun 16
First Quarter
Jun 23
Full
Jun 29
Last Quarter
Jul 8
New

Hourly Weather History & Observations

Time (PDT) Temp. Dew Point Humidity Pressure Visibility Wind Dir Wind Speed Gust Speed Precip Events Conditions
12:15 AM 62.6 °F 46.4 °F 55% 29.81 in 10.0 mi NNE 3.5 mph - N/A   Clear
12:35 AM 62.6 °F 46.4 °F 55% 29.81 in 10.0 mi North 4.6 mph - N/A   Clear
12:55 AM 62.6 °F 44.6 °F 52% 29.81 in 10.0 mi North - - N/A   Clear
1:15 AM 64.4 °F 46.4 °F 52% 29.81 in 10.0 mi North - - N/A   Clear
1:35 AM 62.6 °F 46.4 °F 55% 29.81 in 10.0 mi North - - N/A   Clear
1:55 AM 60.8 °F 44.6 °F 55% 29.80 in 10.0 mi North 5.8 mph - N/A   Clear
2:15 AM 59.0 °F 44.6 °F 59% 29.80 in 10.0 mi North - - N/A   Clear
2:35 AM 60.8 °F 44.6 °F 55% 29.80 in 10.0 mi North - - N/A   Clear
2:55 AM 60.8 °F 46.4 °F 59% 29.80 in 10.0 mi North 3.5 mph - N/A   Clear
3:15 AM 60.8 °F 44.6 °F 55% 29.80 in 10.0 mi North - - N/A   Clear
3:35 AM 59.0 °F 44.6 °F 59% 29.80 in 10.0 mi North - - N/A   Clear
3:55 AM 57.2 °F 44.6 °F 63% 29.80 in 10.0 mi North 3.5 mph - N/A   Clear
4:15 AM 55.4 °F 42.8 °F 63% 29.80 in 10.0 mi North 3.5 mph - N/A   Clear
4:35 AM 55.4 °F 44.6 °F 67% 29.80 in 10.0 mi NW 3.5 mph - N/A   Clear
4:55 AM 53.6 °F 44.6 °F 72% 29.81 in 10.0 mi NW 3.5 mph - N/A   Clear
5:15 AM 53.6 °F 44.6 °F 72% 29.81 in 10.0 mi Calm Calm - N/A   Clear
5:35 AM 53.6 °F 46.4 °F 77% 29.81 in 10.0 mi NW 3.5 mph - N/A   Clear
5:55 AM 51.8 °F 42.8 °F 71% 29.82 in 10.0 mi Calm Calm - N/A   Clear
6:15 AM 53.6 °F 44.6 °F 72% 29.82 in 10.0 mi Calm Calm - N/A   Clear
6:35 AM 55.4 °F 46.4 °F 72% 29.83 in 10.0 mi Calm Calm - N/A   Clear
6:45 AM 57.2 °F 48.2 °F 72% 29.83 in 10.0 mi Calm Calm - N/A   Clear
6:55 AM 60.8 °F 48.2 °F 63% 29.83 in 10.0 mi Calm Calm - N/A   Clear
7:45 AM 68.0 °F 46.4 °F 46% 29.85 in 10.0 mi Calm Calm - N/A   Clear
8:45 AM 75.2 °F 44.6 °F 34% 29.85 in 10.0 mi Calm Calm - N/A   Clear
9:45 AM 80.6 °F 41.0 °F 24% 29.86 in 10.0 mi Calm Calm - N/A   Clear
10:45 AM 86.0 °F 39.2 °F 19% 29.86 in 10.0 mi NW 5.8 mph - N/A   Clear
11:45 AM 87.8 °F 39.2 °F 18% 29.86 in 10.0 mi NW 5.8 mph - N/A   Clear
12:45 PM 91.4 °F 35.6 °F 14% 29.86 in 10.0 mi NW 5.8 mph - N/A   Clear
1:45 PM 93.2 °F 33.8 °F 12% 29.85 in 10.0 mi West 8.1 mph - N/A   Clear
2:50 PM 95.0 °F 33.8 °F 12% 29.84 in 10.0 mi NNW 16.1 mph - N/A   Clear
3:45 PM 95.0 °F 32.0 °F 11% 29.83 in 10.0 mi NW 11.5 mph - N/A   Clear
4:45 PM 95.0 °F 28.4 °F 9% 29.83 in 10.0 mi NW 8.1 mph - N/A   Clear
6:45 PM 91.4 °F 39.2 °F 16% 29.83 in 10.0 mi North 11.5 mph - N/A   Clear
7:45 PM 84.2 °F 42.8 °F 23% 29.85 in 10.0 mi North 9.2 mph - N/A   Clear
8:45 PM 77.0 °F 48.2 °F 36% 29.86 in 10.0 mi North 9.2 mph - N/A   Clear
9:15 PM 73.4 °F 46.4 °F 38% 29.88 in 10.0 mi NNE 9.2 mph - N/A   Clear
9:35 PM 71.6 °F 44.6 °F 38% 29.89 in 10.0 mi NNE 9.2 mph - N/A   Clear
9:55 PM 71.6 °F 44.6 °F 38% 29.90 in 10.0 mi NNE 8.1 mph - N/A   Clear
10:15 PM 71.6 °F 46.4 °F 41% 29.91 in 10.0 mi NNE 8.1 mph - N/A   Clear
10:35 PM 69.8 °F 44.6 °F 40% 29.91 in 10.0 mi NNE 8.1 mph - N/A   Clear
10:55 PM 69.8 °F 42.8 °F 38% 29.92 in 10.0 mi NNE 9.2 mph - N/A   Clear
11:15 PM 68.0 °F 42.8 °F 40% 29.92 in 10.0 mi NNE 8.1 mph - N/A   Clear
11:35 PM 66.2 °F 44.6 °F 46% 29.92 in 10.0 mi NNE 8.1 mph - N/A   Clear
11:55 PM 66.2 °F 44.6 °F 46% 29.92 in 10.0 mi NNE 10.4 mph - N/A   Clear